Date String (YYYY-MM-DD hh:mm:ss) UTC,Instrument flags,Ambient pressure (hPa),Sample flow (lpm),Bypass flow (lpm),Sample temperature (°C),Ambient temperature (°C),ASC tube jacket temperature (°C),LED temperature (°C),Box temperature (°C),Sample RH (%),Span deviation,Mass concentration (μg/m³),Mass concentration (μg/m³),Mass concentration (μg/m³)
DateTimeUTC,F1_M11,P_M11,Q1_M11,Q2_M11,T1_M11,T2_M11,T3_M11,T4_M11,T5_M11,U1_M11,ZSPAN_M11,X0_M11,X2_M11,X1_M11
2021-11-17 08:00:00,,0827.1,4.99,0.00,25.2,24.5,00.0,34.3,27.0,08.2,0000.0,0035.09,0006.33,0001.35
2021-11-17 08:01:00,,0827.1,5.01,0.00,25.2,24.5,00.0,34.3,27.0,08.2,0000.0,0033.37,0006.26,0001.34
2021-11-17 08:02:00,,0827.2,5.00,0.00,25.3,24.5,00.0,34.3,27.0,08.3,0000.0,0032.18,0006.18,0001.35
2021-11-17 08:03:00,,0827.3,4.98,0.00,25.3,24.5,00.0,34.3,27.1,08.4,0000.0,0030.56,0006.21,0001.36
2021-11-17 08:04:00,,0827.3,5.01,0.00,25.3,24.5,00.0,34.3,27.1,08.4,0000.0,0030.27,0006.20,0001.37
2021-11-17 08:05:00,,0827.4,5.00,0.00,25.3,24.6,00.0,34.3,27.1,08.3,0000.0,0029.83,0006.19,0001.36
2021-11-17 08:06:00,,0827.4,5.01,0.00,25.3,24.6,00.0,34.4,27.2,08.2,0000.0,0028.30,0006.19,0001.35
2021-11-17 08:07:00,,0827.4,5.00,0.00,25.3,24.6,00.0,34.4,27.2,08.2,0000.0,0028.10,0006.21,0001.35
2021-11-17 08:08:00,,0827.4,5.00,0.00,25.4,24.7,00.0,34.4,27.2,08.3,0000.0,0027.56,0006.14,0001.35
2021-11-17 08:09:00,,0827.3,5.00,0.00,25.4,24.7,00.0,34.4,27.2,08.2,0000.0,0028.33,0006.12,0001.33
2021-11-17 08:10:00,,0827.2,4.99,0.00,25.4,24.7,00.0,34.4,27.3,08.2,0000.0,0028.27,0006.10,0001.32
2021-11-17 08:11:00,,0827.3,5.01,0.00,25.4,24.8,00.0,34.4,27.3,08.3,0000.0,0028.18,0006.05,0001.31
2021-11-17 08:12:00,,0827.3,5.00,0.00,25.4,24.8,00.0,34.4,27.3,08.4,0000.0,0028.38,0006.08,0001.33
2021-11-17 08:13:00,,0827.2,5.01,0.00,25.4,24.8,00.0,34.4,27.3,08.2,0000.0,0029.83,0006.10,0001.33
2021-11-17 08:14:00,,0827.3,5.00,0.00,25.4,24.8,00.0,34.4,27.3,08.3,0000.0,0030.39,0006.15,0001.34
2021-11-17 08:15:00,,0827.2,5.00,0.00,25.4,24.8,00.0,34.4,27.2,08.4,0000.0,0031.75,0006.12,0001.33
2021-11-17 08:16:00,,0827.2,5.01,0.00,25.4,24.8,00.0,34.4,27.2,08.6,0000.0,0032.23,0006.10,0001.35
2021-11-17 08:17:00,,0827.3,5.00,0.00,25.4,24.7,00.0,34.4,27.2,08.6,0000.0,0032.29,0006.07,0001.37
2021-11-17 08:18:00,,0827.3,5.00,0.00,25.4,24.8,00.0,34.4,27.2,08.7,0000.0,0034.00,0006.10,0001.38
2021-11-17 08:19:00,,0827.2,5.00,0.00,25.4,24.8,00.0,34.4,27.3,08.7,0000.0,0034.54,0006.08,0001.39
2021-11-17 08:20:00,,0827.3,5.01,0.00,25.5,24.8,00.0,34.4,27.3,08.7,0000.0,0033.08,0006.05,0001.38
2021-11-17 08:21:00,,0827.4,5.00,0.00,25.5,24.8,00.0,34.5,27.3,08.8,0000.0,0032.05,0006.03,0001.40
2021-11-17 08:22:00,,0827.3,4.99,0.00,25.5,24.8,00.0,34.5,27.3,08.8,0000.0,0032.56,0006.06,0001.41
2021-11-17 08:23:00,,0827.4,5.01,0.00,25.5,24.8,00.0,34.5,27.3,08.7,0000.0,0033.54,0006.09,0001.41
2021-11-17 08:24:00,,0827.4,4.99,0.00,25.5,24.8,00.0,34.5,27.4,08.7,0000.0,0032.36,0006.11,0001.41
2021-11-17 08:25:00,,0827.4,5.00,0.00,25.5,24.8,00.0,34.5,27.4,08.8,0000.0,0031.37,0006.09,0001.40
2021-11-17 08:26:00,,0827.5,5.01,0.00,25.5,24.8,00.0,34.5,27.4,08.9,0000.0,0031.26,0006.13,0001.40
2021-11-17 08:27:00,,0827.6,5.00,0.00,25.5,24.9,00.0,34.5,27.4,08.9,0000.0,0032.44,0006.18,0001.41
2021-11-17 08:28:00,,0827.5,4.99,0.00,25.5,24.9,00.0,34.5,27.4,09.1,0000.0,0033.53,0006.23,0001.41
2021-11-17 08:29:00,,0827.6,5.00,0.00,25.6,24.9,00.0,34.5,27.4,09.1,0000.0,0032.23,0006.25,0001.42
2021-11-17 08:30:00,,0827.5,5.00,0.00,25.6,24.9,00.0,34.5,27.4,09.2,0000.0,0031.92,0006.23,0001.43
2021-11-17 08:31:00,,0827.5,5.00,0.00,25.6,24.9,00.0,34.5,27.4,09.2,0000.0,0032.82,0006.35,0001.47
2021-11-17 08:32:00,,0827.4,5.00,0.00,25.6,24.9,00.0,34.5,27.4,09.0,0000.0,0032.53,0006.35,0001.47
2021-11-17 08:33:00,,0827.4,4.98,0.00,25.6,24.9,00.0,34.5,27.4,09.0,0000.0,0031.86,0006.44,0001.48
2021-11-17 08:34:00,,0827.4,5.00,0.00,25.6,24.9,00.0,34.5,27.4,09.0,0000.0,0031.84,0006.50,0001.49
2021-11-17 08:35:00,,0827.4,5.01,0.00,25.6,24.9,00.0,34.6,27.4,09.0,0000.0,0032.24,0006.48,0001.50
2021-11-17 08:36:00,,0827.4,4.99,0.00,25.6,24.9,00.0,34.6,27.5,09.2,0000.0,0032.87,0006.51,0001.51
2021-11-17 08:37:00,,0827.4,4.99,0.00,25.6,24.9,00.0,34.6,27.4,08.9,0000.0,0032.84,0006.52,0001.49
2021-11-17 08:38:00,,0827.4,4.99,0.00,25.6,24.9,00.0,34.6,27.4,09.1,0000.0,0031.36,0006.43,0001.46
2021-11-17 08:39:00,,0827.5,5.01,0.00,25.6,24.9,00.0,34.6,27.4,09.3,0000.0,0030.50,0006.33,0001.43
2021-11-17 08:40:00,,0827.5,5.00,0.00,25.6,24.9,00.0,34.6,27.4,09.3,0000.0,0029.59,0006.20,0001.39
2021-11-17 08:41:00,,0827.6,5.00,0.00,25.6,24.9,00.0,34.6,27.4,09.2,0000.0,0028.94,0006.16,0001.35
2021-11-17 08:42:00,,0827.7,5.01,0.00,25.6,24.9,00.0,34.6,27.4,09.1,0000.0,0029.21,0006.09,0001.32
2021-11-17 08:43:00,,0827.7,5.01,0.00,25.6,24.9,00.0,34.6,27.4,09.2,0000.0,0028.87,0006.00,0001.29
2021-11-17 08:44:00,,0827.7,4.99,0.00,25.6,24.9,00.0,34.6,27.4,09.3,0000.0,0029.01,0005.91,0001.26
2021-11-17 08:45:00,,0827.7,5.00,0.00,25.6,24.9,00.0,34.6,27.4,09.4,0000.0,0029.09,0005.79,0001.24
2021-11-17 08:46:00,,0827.7,5.00,0.00,25.6,24.9,00.0,34.6,27.4,09.5,0000.0,0029.23,0005.73,0001.21
2021-11-17 08:47:00,,0827.6,4.99,0.00,25.6,24.9,00.0,34.6,27.4,09.5,0000.0,0029.15,0005.72,0001.19
2021-11-17 08:48:00,,0827.6,5.00,0.00,25.6,24.9,00.0,34.6,27.4,09.5,0000.0,0027.93,0005.67,0001.20
2021-11-17 08:49:00,,0827.6,4.99,0.00,25.6,24.9,00.0,34.6,27.4,09.5,0000.0,0028.27,0005.76,0001.21
2021-11-17 08:50:00,,0827.7,5.01,0.00,25.6,24.9,00.0,34.6,27.4,09.7,0000.0,0028.09,0005.78,0001.22
2021-11-17 08:51:00,,0827.7,5.00,0.00,25.6,24.9,00.0,34.6,27.5,09.8,0000.0,0027.96,0005.79,0001.23
2021-11-17 08:52:00,,0827.7,5.00,0.00,25.6,24.9,00.0,34.6,27.4,09.7,0000.0,0029.86,0005.91,0001.26
2021-11-17 08:53:00,,0827.7,5.02,0.00,25.6,24.9,00.0,34.6,27.4,09.7,0000.0,0030.06,0005.87,0001.27
2021-11-17 08:54:00,,0827.8,4.99,0.00,25.6,24.9,00.0,34.6,27.5,09.7,0000.0,0030.15,0005.93,0001.28
2021-11-17 08:55:00,,0827.8,5.00,0.00,25.6,24.9,00.0,34.6,27.5,09.6,0000.0,0029.68,0005.91,0001.29
2021-11-17 08:56:00,,0827.9,5.01,0.00,25.6,24.9,00.0,34.6,27.5,09.6,0000.0,0029.49,0006.00,0001.28
2021-11-17 08:57:00,,0827.9,4.99,0.00,25.7,24.9,00.0,34.6,27.5,09.3,0000.0,0027.83,0006.01,0001.26
2021-11-17 08:58:00,,0827.9,5.01,0.00,25.6,24.9,00.0,34.6,27.5,09.4,0000.0,0028.32,0005.99,0001.28
2021-11-17 08:59:00,,0827.9,5.00,0.00,25.6,24.8,00.0,34.6,27.4,09.2,0000.0,0028.21,0005.87,0001.26
